Location: Big Sable Point
(44.0575°N, 86.5149°W)
Time: 20:25:54
(UTC-04:00)

Envisat - Visible Passes

Search period start: 23 March 2019 00:00
Search period end: 02 April 2019 00:00
Orbit: 764 x 766 km, 98.2° (Epoch: 22 March)

Date Brightness Start Highest point End Pass type
(mag) Time Alt. Az. Time Alt. Az. Time Alt. Az.
23 Mar 3.9 20:42:49 10° S 20:47:46 54° W 20:52:46 10° NNW visible
24 Mar 5.9 21:47:46 10° WSW 21:50:32 15° W 21:53:21 10° NW visible
25 Mar 5.0 21:08:57 10° SSW 21:13:26 31° W 21:17:58 10° NNW visible
26 Mar 3.5 20:31:29 10° S 20:36:32 68° WSW 20:41:37 10° NNW visible
27 Mar 5.8 21:35:43 10° SW 21:39:13 19° W 21:42:43 10° NW visible
28 Mar 4.5 20:57:25 10° SSW 21:02:09 39° W 21:06:55 10° NNW visible
29 Mar 6.3 22:04:28 10° W 22:05:04 10° W 22:05:41 10° W visible
30 Mar 5.5 21:23:53 10° SW 21:27:52 23° W 21:31:54 10° NW visible
31 Mar 4.1 20:45:59 10° S 20:50:54 49° W 20:55:50 10° NNW visible
01 Apr 6.0 21:51:18 10° WSW 21:53:42 13° W 21:56:07 10° WNW visible
